THORAD AGENA D DEB, 4652

Orbit data source: Space-Track

THORAD AGENA D DEB, 4652 is space debris in SSO originally from a launch on Wed, 08 Apr 1970 UTC launched from the Air Force Western Test Range (AFWTR). Debris objects in space refer to the collection of defunct objects orbiting the Earth. Examples of debris include non-operational satellites, rocket bodies, and fragments generated from explosions, collisions, or faulty payload assembly.

Loading next visibility...
Identifier
4652, 1970-025AL
Orbit
SSO
Country
Flag of USUS
Related business
Manufacturer
Unknown
Mission
Spacecraft
Bus & Motor
Unknown
Mass
Unknown
Launch date (UTC)
1970-04-08 (56 years ago)
Launch vehicle
Unknown
Launch site
Air Force Western Test Range (AFWTR)
Object type
Payload
Rocket body
Debris
Shape & HBR
Unknown shape, 0.1 m
Radar Cross Section
Small (<0.1 m²)

Expand to show TLE details & history
Last TLE update: 10 hours ago

TLE from 10 hours ago
0 THORAD AGENA D DEB
1  4652U 70025AL  26125.36664022  .00000995  00000-0  83418-3 0  9996
2  4652  99.6158 278.3578 0029226 337.8915  53.3463 13.90604125811278
Epoch: 2026-05-05T08:47Z
TLE epoch observation values (Epoch: 2026-05-05T08:47:57.715Z)
Latitude
31.07087°
Longitude
-82.70358°
Altitude
917.677 km
Speed
7.402 km/s
True Right ascension
18h 10m 07s
True Declination
30° 55' 21"
Sunlit
Object was in daylight at epoch
Visualization orbit readout
Latitude
Unknown
Longitude
Unknown
Altitude
Unknown
Speed
Unknown
Apparent Right ascension
Unknown
Apparent Declination
Unknown
Sunlit
N/A
Visualization observer readout
Local Sidereal Time
02:36:01
Azimuth
Unknown
Elevation
Unknown
Doppler factor
Unknown
Orbital elements
Apogee altitude
945.098 km
Perigee altitude
902.417 km
Semi-major axis
7,301.894 km
Eccentricity
0.00292
Inclination
99.6158°
RAAN
278.3578°
Arg. of periapsis
337.8915°
True anomaly
53.61557°
Mean anomaly
53.3463°
Eccentric anomaly
53.48087°
Mean motion
3.47848 °/min
Orbital period
103.49 mins
BSTAR
0.00083418

Documentation

Showing up to 5 results
|